Theta_e
341 341 346 351 350 351 349 350 353 354 350 351 352 352 349 344 345 346 345 345 345 346 347 348 348 347 347 349 350 351 349 349 349 350 350 350 349 349 350 352 351 350 348 351
341 345 344 342 343 339 344 349 348 350 351 353 354 355 352 347 344 344 345 346 346 345 347 347 348 348 348 348 349 350 349 349 348 350 350 350 350 350 351 351 352 354 353 353
344 341 338 338 339 340 342 344 346 347 351 357 355 356 355 351 347 343 344 345 345 346 347 348 347 348 348 350 350 349 348 349 347 347 349 351 353 348 349 349 349 351 353 353
345 341 337 340 340 339 343 342 341 349 351 354 354 360 353 354 353 349 343 344 345 346 347 347 348 348 349 348 351 351 352 351 351 348 348 352 351 349 349 350 349 349 351 349
344 345 338 340 338 337 335 338 340 343 349 350 347 351 357 355 354 352 349 344 343 343 345 346 345 347 348 349 350 352 354 354 352 355 349 352 351 352 353 351 350 352 348 351
340 331 330 336 334 332 333 336 340 343 342 347 344 345 351 351 351 350 349 348 344 343 343 344 345 345 347 349 349 350 354 357 357 355 354 350 346 345 346 351 350 351 350 349
334 336 332 330 334 332 333 338 340 341 339 338 338 338 349 351 352 349 348 349 348 346 343 344 347 348 349 349 350 350 356 351 352 352 351 350 352 347 346 348 347 349 351 352
332 336 332 331 336 338 334 336 338 341 341 338 339 338 352 351 349 348 349 348 349 346 345 345 347 348 351 352 351 352 354 353 352 347 346 349 350 350 348 349 348 346 345 346
327 329 332 332 334 333 334 336 336 336 336 337 337 345 348 349 350 350 349 350 348 347 348 351 352 353 354 353 353 353 348 347 346 344 340 341 340 338 329 328 321 336 336 336
327 327 329 329 329 331 333 334 334 333 336 336 335 333 346 350 352 353 352 354 353 350 350 348 347 344 343 341 341 340 340 342 343 344 341 336 330 326 331 332 325 325 327 324
326 328 329 327 327 330 330 333 333 332 332 331 331 339 345 348 351 353 350 343 340 343 342 340 339 337 336 335 334 332 332 331 331 331 333 330 324 326 331 333 333 332 326 328
326 326 328 328 329 328 329 329 329 331 331 331 330 334 341 345 351 345 340 335 337 335 337 337 338 336 334 332 329 328 328 326 325 324 325 323 324 323 320 321 322 321 322 321
326 326 327 329 329 328 327 328 328 329 329 329 331 339 341 348 346 344 340 334 331 331 332 328 327 326 326 322 320 320 321 325 321 324 324 317 313 313 313 312 312 312 313 314
326 327 327 329 331 329 328 327 327 327 328 328 329 338 343 348 342 336 332 329 328 328 328 325 323 321 320 324 326 325 322 315 314 314 319 318 316 314 313 313 314 314 313 313
326 327 328 329 329 328 329 329 328 327 328 328 329 330 341 347 341 336 331 330 329 327 326 325 324 323 323 322 322 322 321 321 319 318 320 320 320 320 320 321 320 320 320 320
327 329 330 328 327 326 326 327 326 326 327 327 327 328 339 342 339 336 333 330 327 324 323 323 323 322 322 321 321 320 320 320 317 315 318 317 315 315 317 318 319 319 320 320
328 328 330 329 329 328 328 328 328 329 328 328 328 334 338 341 338 336 331 328 325 323 323 322 322 321 321 321 319 319 320 320 320 320 320 320 320 319 319 319 319 319 319 319
330 331 329 329 330 331 331 330 328 328 327 329 329 332 335 336 335 332 328 325 323 322 322 322 321 321 320 320 319 320 320 320 320 320 320 320 319 319 319 319 318 318 318 318
328 328 329 329 330 329 331 329 328 327 330 329 329 330 332 332 331 328 326 325 322 321 321 320 320 320 320 320 320 320 320 321 321 321 320 320 320 319 319 318 317 317 316 316
327 328 328 329 328 328 331 328 325 326 328 328 329 330 331 330 332 331 326 323 321 320 319 318 318 318 319 320 320 321 321 321 321 321 321 320 320 320 320 318 318 316 316 315
328 329 328 327 330 328 328 326 325 327 333 327 327 328 328 330 329 328 325 323 321 320 318 317 317 317 318 319 320 321 321 321 321 321 321 321 321 321 320 319 318 316 315 313
327 328 329 330 329 329 326 326 325 329 326 325 325 326 325 327 327 325 323 321 320 319 317 316 317 318 318 319 320 320 321 321 322 322 321 321 322 321 321 320 319 316 314 315
329 330 332 333 332 327 324 326 327 325 325 324 325 325 325 326 326 324 322 321 320 319 318 318 317 317 317 318 320 320 321 322 322 322 321 321 321 320 320 319 319 317 314 313
329 327 326 328 327 326 324 326 326 324 324 324 323 323 325 325 325 324 322 321 319 318 318 317 317 316 317 320 320 321 322 322 322 321 319 320 320 318 318 317 318 316 314 312
328 327 327 328 328 325 324 325 325 325 325 324 323 323 324 324 325 323 322 321 319 318 317 316 316 316 319 320 320 321 321 322 322 320 319 319 318 318 317 317 317 316 314 313
326 326 327 328 327 326 326 325 324 324 324 325 324 324 324 323 323 322 321 320 318 316 317 317 318 319 319 320 320 321 322 322 322 320 319 318 318 317 317 317 317 317 315 314
Wind_Speed
15 13 12 15 4 14 2 13 4 20 13 15 12 16 18 21 20 19 20 17 17 17 18 15 13 12 12 15 17 18 17 15 13 10 8 6 7 6 7 7 9 8 7 6
7 13 11 1 4 4 6 7 5 6 14 11 18 18 17 17 18 19 18 20 20 19 20 17 14 13 13 13 15 17 17 15 14 10 9 8 6 6 8 12 7 8 9 8
16 5 7 4 7 9 11 11 6 5 10 19 15 10 18 17 17 17 18 17 19 20 21 20 16 15 14 14 14 16 17 16 15 13 8 7 6 6 6 8 7 10 7 8
14 6 8 9 11 9 17 7 7 15 15 1 10 1 7 17 16 17 17 20 18 21 21 19 19 17 17 16 15 15 15 16 14 15 12 9 9 7 9 11 7 10 4 10
14 15 9 12 9 9 7 4 9 11 12 9 7 11 11 22 17 18 20 18 20 20 22 22 20 21 17 17 18 16 16 15 16 12 13 12 12 11 16 12 7 3 7 11
16 4 5 13 2 8 3 6 5 9 12 13 11 11 10 11 15 18 19 20 17 19 19 19 18 19 18 14 12 14 17 15 14 15 14 13 14 15 19 12 12 6 10 13
17 13 10 8 12 6 11 14 9 11 10 10 4 6 12 13 6 3 6 22 23 18 20 18 14 15 11 8 10 11 10 10 8 6 5 5 8 12 14 17 16 12 13 14
15 15 16 14 18 13 16 18 13 12 12 7 10 8 10 11 7 4 8 11 23 25 21 19 19 15 11 17 12 12 15 13 9 9 5 3 4 3 8 8 9 8 8 7
11 19 15 13 15 10 15 17 17 15 16 10 8 10 10 12 8 5 8 13 17 24 15 16 18 17 18 14 15 16 18 17 11 10 3 6 9 7 10 6 5 4 6 7
17 11 13 9 6 9 16 8 14 10 16 17 14 10 10 14 13 11 7 21 21 26 26 24 25 22 18 14 14 13 8 3 9 15 17 18 8 7 8 9 8 10 15 20
17 12 11 12 14 16 13 15 15 16 13 9 10 3 11 13 14 14 13 15 18 23 27 20 18 18 15 13 14 14 14 12 9 12 11 13 10 7 8 10 13 14 17 23
17 12 14 14 5 8 10 10 17 14 16 12 11 2 8 11 21 22 18 16 16 20 23 19 15 15 13 11 10 8 8 8 8 5 1 6 10 14 15 16 18 21 23 25
13 11 15 9 11 8 13 15 13 17 14 15 8 6 9 19 15 14 18 15 14 16 17 16 17 16 12 9 8 6 3 2 4 7 10 12 14 15 17 19 23 26 28 29
6 14 15 7 15 10 18 13 7 13 10 11 13 14 11 18 14 15 15 17 17 17 16 14 12 10 7 4 3 1 4 6 6 4 4 7 12 17 21 22 24 26 29 32
11 16 12 7 5 12 4 11 6 9 10 14 17 12 18 19 16 19 20 18 18 15 13 11 11 10 10 8 8 5 2 2 5 7 6 9 12 16 17 17 21 24 26 27
16 12 4 3 3 4 6 3 7 9 9 11 13 13 16 19 21 20 19 19 17 14 13 12 11 10 8 6 5 4 5 7 9 11 11 13 16 18 20 22 23 26 27 29
12 10 8 11 2 5 10 9 9 6 8 8 11 13 17 14 20 20 17 15 14 13 13 11 10 7 6 4 4 4 4 5 6 7 8 10 12 15 17 19 23 27 29 29
6 6 7 2 5 13 8 5 6 5 6 8 6 5 8 13 14 17 14 13 11 12 11 9 7 6 5 3 3 4 5 7 8 9 11 14 16 20 21 26 29 33 32 32
5 6 3 8 10 4 11 5 2 3 4 3 4 2 8 11 14 13 10 10 11 11 9 8 7 5 2 1 2 4 5 6 8 10 12 14 15 18 20 24 27 30 34 36
5 4 6 3 9 7 11 8 7 3 5 7 6 7 10 10 9 10 17 12 10 9 8 6 4 2 1 2 4 6 7 9 12 14 15 16 18 19 22 24 26 32 33 38
1 3 7 7 10 1 6 8 4 5 6 6 7 7 9 8 7 13 12 9 8 7 5 4 2 3 4 4 6 7 9 11 14 16 18 20 22 23 25 26 28 32 37 39
3 4 9 8 5 2 6 7 2 5 6 5 4 7 7 6 8 9 8 8 7 6 4 3 4 5 5 7 8 10 11 13 16 17 19 21 22 23 25 28 30 34 42 39
4 5 3 7 5 5 5 7 7 1 2 0 2 4 6 7 6 6 6 6 6 5 5 5 6 6 7 7 8 10 12 15 17 18 22 22 22 24 21 26 30 31 39 38
4 4 4 3 7 3 3 4 5 3 2 3 6 7 7 9 10 7 6 6 5 4 5 6 6 8 8 8 10 12 14 16 18 19 23 21 22 22 20 25 23 29 31 36
6 5 3 5 6 3 6 7 6 3 3 4 7 8 9 9 7 8 8 7 5 5 5 6 8 8 10 11 14 15 16 18 18 20 20 20 22 22 24 22 27 25 28 34
10 6 6 3 9 4 7 4 4 5 6 8 9 9 9 9 10 10 7 5 3 4 6 7 7 10 11 13 15 16 16 15 17 18 18 20 21 23 24 24 27 29 32 30
Wind_Direction
193 238 216 200 125 197 321 182 51 160 146 200 147 145 161 172 172 169 168 171 171 170 159 156 156 154 159 167 175 181 182 188 188 189 194 203 217 223 231 239 228 233 226 252
207 243 189 101 225 268 257 212 158 139 173 224 148 154 159 174 176 172 180 170 171 166 162 166 170 166 166 174 181 188 190 195 191 200 206 217 239 230 240 250 239 207 238 248
257 50 53 210 258 247 232 250 186 101 197 97 302 157 155 171 170 167 182 176 180 172 173 171 177 182 182 180 186 193 197 205 205 191 226 236 233 252 258 258 263 253 239 249
263 304 277 234 248 271 271 147 297 154 223 348 213 174 328 168 171 166 181 177 190 176 181 181 182 191 194 193 195 198 202 206 216 221 214 237 248 257 259 255 247 233 299 275
225 236 251 245 266 214 44 220 219 234 152 213 237 232 177 215 176 174 182 183 190 189 184 185 194 191 201 196 200 201 209 220 202 230 220 233 244 248 247 257 263 221 263 280
253 166 264 270 225 282 97 200 251 276 276 233 192 245 171 162 179 172 191 174 195 192 197 193 191 188 190 193 188 198 191 207 214 217 235 238 249 260 266 277 277 307 286 278
226 205 214 238 224 235 237 222 219 220 225 244 184 196 100 112 65 87 186 178 189 202 197 186 170 175 184 182 192 195 158 202 204 203 241 261 253 254 270 290 292 285 268 267
220 207 196 224 241 213 231 253 251 245 243 246 118 223 120 118 142 202 238 246 182 187 199 198 201 199 179 165 136 159 164 150 161 174 196 243 207 351 327 294 310 324 331 326
252 233 172 196 227 243 229 228 268 298 295 277 243 107 126 152 128 207 212 210 227 174 174 139 122 125 112 120 119 159 182 189 186 185 121 355 336 325 305 300 20 349 349 328
269 275 179 170 223 234 266 303 239 234 262 273 280 243 139 164 143 88 60 70 77 87 112 98 101 104 107 106 108 105 103 149 228 243 243 261 289 318 321 324 303 299 301 304
256 254 185 158 212 226 199 244 251 288 290 288 261 96 74 123 131 134 104 77 76 87 101 103 106 104 108 112 107 105 103 100 90 129 173 217 244 263 284 300 309 308 291 285
234 249 240 205 213 281 298 251 229 231 238 258 274 55 99 116 119 114 109 105 107 107 115 113 113 115 116 111 99 84 112 119 116 103 98 280 287 285 292 293 290 291 289 286
225 224 249 157 178 208 252 253 266 280 278 275 290 108 144 108 122 128 125 113 118 121 115 118 119 115 104 113 99 72 55 22 345 322 277 301 303 292 288 292 292 294 294 293
285 250 251 284 344 237 198 230 236 266 263 259 248 127 155 129 133 133 129 126 126 128 133 128 114 108 106 111 137 133 319 321 328 2 2 318 310 308 311 308 304 302 299 296
241 248 267 82 287 306 158 192 196 260 291 295 307 327 165 143 141 140 140 140 141 144 142 134 130 124 125 120 112 118 140 14 5 7 10 348 334 331 329 315 316 313 310 302
225 254 265 260 290 272 255 232 268 285 301 293 287 291 118 129 133 144 154 152 149 145 140 138 138 135 126 112 95 56 28 22 9 5 356 344 340 336 330 325 322 317 311 306
243 246 207 244 282 253 247 253 221 295 317 296 293 12 127 150 144 159 161 153 149 148 145 143 141 139 123 102 85 57 34 28 23 15 5 356 352 348 344 336 327 324 314 308
205 223 234 210 262 243 67 51 7 314 316 315 301 321 134 142 159 157 164 156 152 150 147 147 148 149 137 126 93 48 28 19 10 358 347 344 343 343 339 334 327 324 320 311
69 227 199 263 229 263 173 131 48 308 96 21 297 153 140 164 158 144 162 158 159 152 151 155 160 159 127 64 6 352 352 350 341 332 329 327 322 322 328 332 335 329 324 318
76 29 288 19 303 278 69 75 69 5 234 108 124 152 150 162 203 187 170 165 152 147 151 156 171 188 243 300 334 337 331 327 323 317 314 316 314 315 317 323 326 327 324 325
250 335 296 311 292 145 104 112 90 247 86 126 136 144 153 192 70 128 156 159 161 160 157 172 208 239 269 299 304 312 320 318 315 314 312 308 309 314 313 313 311 324 325 323
263 255 234 284 244 220 102 126 286 69 132 142 152 167 189 142 128 149 163 166 167 167 186 220 251 267 281 298 302 308 310 310 309 311 310 304 305 310 309 312 315 321 330 321
260 331 55 228 69 133 138 63 98 96 132 106 243 262 228 210 205 197 190 186 188 198 224 249 257 267 282 286 291 301 305 308 311 310 311 308 313 311 311 316 325 331 334 334
141 4 289 324 129 155 155 116 150 170 246 269 281 278 240 252 230 211 213 206 209 230 254 265 266 279 286 292 297 302 307 310 309 310 314 313 307 312 315 321 324 326 333 337
48 155 245 245 160 172 195 200 196 201 258 262 271 271 261 247 225 222 218 222 237 256 259 265 272 278 290 298 304 306 304 307 305 307 309 310 313 319 326 328 324 319 324 325
169 204 214 77 120 256 119 154 213 237 246 259 267 258 249 237 221 219 225 231 249 268 270 270 272 285 295 300 304 307 305 303 303 305 311 315 317 319 321 322 321 319 324 330